星链-34444 (STARLINK-34444)

导读

STARLINK-34444是美国SpaceX公司星链星座的成员,于2025年6月13日发射入轨,归属星链低轨互联网星座组网。作为星链星座扩容的一部分,它将为全球尤其是偏远地区提供高速卫星互联网接入服务,依托低轨轨道布局降低通信延迟,支撑全球互联网覆盖,进一步扩展星链系统的服务能力与覆盖范围。

基本信息
目录编号:
64369
目录名称:
STARLINK-34444
国际标识:
2025-126AB
轨道中心:
EARTH
卫星名称:
星链-34444
卫星全名:
星链-34444 (STARLINK-34444)
卫星状态:
在轨 (已飞行448 天)
发射日期:
2025-06-13 UTC
国别 :
美国 (US)
星等 :
--
轨道信息
数据来源 国际轨道数据
星历时间: 2026-09-04T14:00:02+0800
7小时前
查看轨道信息
半长轴: 6871.949km
偏心率: 0.0002552
轨道倾角: 70.001°
近地点辐角 292.582°
升交点赤经 303.977°
平近点角 127.076°
近地点: 492.058km
远地点: 495.566km
周期: 94.489分钟
每日圈数: 15.239927
详细信息
固有亮度:
5
最大亮度:
2.5
卫星平台:
Starlink V1.0
覆盖范围:
全球
运营商:
太空探索技术公司
运营商所在国:
美国
制造商(研发单位):
太空探索技术公司
制造商所在国:
美国
使用方式:
暂无
卫星简介
Starlink 计划是 SpaceX 推出的全球卫星互联网项目,通过发射低轨道卫星,为全球尤其是偏远地区提供高速、低延迟的互联网服务。自 2019 年起,Starlink 已部署数千颗卫星,旨在缩小全球数字鸿沟,推动互联网普及。该项目还为军事、航空等行业提供通信支持,带来广泛经济效益。
2D轨道图
3D轨道图
轨道高度分析图
轨道倾角分析图
轨道综合分析图
查看轨道综合分析图
交会数据列表
事件ID 空间交会对象 最接近时刻(TCA) 交会距离 交会风险概率(CRP) 交会风险指数(CRI) 操作
CDM_260905-024606-257306-436921
2026-09-05T
02:46:13+0000
0.033 km
近距离
1.501756E-3 极高风险 0.99
CDM_260829-172802-591906-436923
IKONOS 2 (25919)
2026-08-29T
17:28:07+0000
0.086 km
近距离
1.291617E-3 极高风险 0.97
CDM_260905-022205-925306-436921
2026-09-05T
02:22:42+0000
1.107 km
极远距离
1.391899E-5 中风险 0.58
CDM_260905-004805-925306-436921
2026-09-05T
00:48:31+0000
2.591 km
极远距离
1.268216E-6 低风险 0.37
CDM_260905-160206-436906-448021
2026-09-05T
16:02:33+0000
2.464 km
极远距离
1.146777E-6 低风险 0.36
CDM_260830-135205-738706-436921
2026-08-30T
13:52:26+0000
2.518 km
极远距离
1.040914E-6 低风险 0.35
CDM_260905-025606-436906-741821
2026-09-05T
02:56:59+0000
2.654 km
极远距离
7.143576E-7 极低风险 0.32